| time (UTC) | temp F | wind direction | speed MPH | gust MPH | rain 1hr in | rain 24hr in | rain mn in | humidity % | barometer mb |
| 20260509001557 | 67 | 0 | 3.0 | 12.0 | 0.00 | 0.00 | 0.00 | 43 | 1002.1 |
| 20260509000058 | 67 | 170 | 2.0 | 9.0 | 0.00 | 0.00 | 0.00 | 43 | 1002.2 |
| 20260508234556 | 67 | 143 | 1.0 | 8.0 | 0.00 | 0.00 | 0.00 | 44 | 1002.2 |
| 20260508233102 | 67 | 0 | 3.0 | 8.0 | 0.00 | 0.00 | 0.00 | 43 | 1002.1 |
| 20260508231633 | 67 | 321 | 3.0 | 11.0 | 0.00 | 0.00 | 0.00 | 42 | 1002.2 |
| 20260508230059 | 68 | 149 | 2.0 | 13.0 | 0.00 | 0.00 | 0.00 | 43 | 1002.0 |
| 20260508224600 | 68 | 316 | 1.0 | 8.0 | 0.00 | 0.00 | 0.00 | 42 | 1001.8 |
| 20260508223049 | 68 | 125 | 4.0 | 13.0 | 0.00 | 0.00 | 0.00 | 41 | 1001.7 |
| 20260508221559 | 68 | 110 | 3.0 | 11.0 | 0.00 | 0.00 | 0.00 | 42 | 1001.8 |
| 20260508220053 | 68 | 265 | 2.0 | 14.0 | 0.00 | 0.00 | 0.00 | 42 | 1001.7 |
| 20260508214626 | 68 | 165 | 5.0 | 15.0 | 0.00 | 0.00 | 0.00 | 41 | 1001.8 |
| 20260508213056 | 69 | 324 | 2.0 | 14.0 | 0.00 | 0.00 | 0.00 | 40 | 1002.1 |
| 20260508211558 | 69 | 157 | 2.0 | 11.0 | 0.00 | 0.00 | 0.00 | 40 | 1002.1 |
| 20260508210057 | 69 | 72 | 3.0 | 13.0 | 0.00 | 0.00 | 0.00 | 39 | 1002.5 |
| 20260508204556 | 68 | 124 | 7.0 | 16.0 | 0.00 | 0.00 | 0.00 | 39 | 1002.7 |
| 20260508203115 | 68 | 153 | 8.0 | 17.0 | 0.00 | 0.00 | 0.00 | 39 | 1002.9 |
| 20260508201555 | 68 | 98 | 6.0 | 15.0 | 0.00 | 0.00 | 0.00 | 38 | 1003.1 |
| 20260508194555 | 68 | 134 | 5.0 | 19.0 | 0.00 | 0.00 | 0.00 | 38 | 1003.3 |
| 20260508193137 | 68 | 111 | 9.0 | 22.0 | 0.00 | 0.00 | 0.00 | 38 | 1003.3 |
| 20260508191602 | 68 | 169 | 4.0 | 18.0 | 0.00 | 0.00 | 0.00 | 37 | 1003.5 |
| 20260508190051 | 68 | 34 | 9.0 | 18.0 | 0.00 | 0.00 | 0.00 | 37 | 1003.8 |
| 20260508184553 | 68 | 145 | 5.0 | 13.0 | 0.00 | 0.00 | 0.00 | 38 | 1003.9 |
| 20260508183052 | 68 | 230 | 8.0 | 20.0 | 0.00 | 0.00 | 0.00 | 38 | 1004.4 |
| 20260508181556 | 67 | 124 | 5.0 | 16.0 | 0.00 | 0.00 | 0.00 | 37 | 1004.5 |
| 20260508180105 | 67 | 100 | 5.0 | 14.0 | 0.00 | 0.00 | 0.00 | 37 | 1004.8 |
| 20260508174557 | 66 | 206 | 6.0 | 17.0 | 0.00 | 0.00 | 0.00 | 39 | 1004.8 |
| 20260508173053 | 66 | 161 | 6.0 | 23.0 | 0.00 | 0.00 | 0.00 | 39 | 1005.1 |
| 20260508171552 | 66 | 116 | 11.0 | 18.0 | 0.00 | 0.00 | 0.00 | 40 | 1005.5 |
| 20260508170049 | 65 | 111 | 8.0 | 22.0 | 0.00 | 0.00 | 0.00 | 40 | 1006.0 |
| 20260508164558 | 64 | 98 | 6.0 | 25.0 | 0.00 | 0.00 | 0.00 | 44 | 1006.3 |
| 20260508163051 | 64 | 113 | 18.0 | 26.0 | 0.00 | 0.00 | 0.00 | 43 | 1006.5 |
| 20260508161556 | 63 | 127 | 8.0 | 23.0 | 0.00 | 0.00 | 0.00 | 45 | 1006.7 |
| 20260508160052 | 62 | 118 | 13.0 | 22.0 | 0.00 | 0.00 | 0.00 | 47 | 1006.9 |
| 20260508154553 | 62 | 116 | 14.0 | 22.0 | 0.00 | 0.00 | 0.00 | 47 | 1007.1 |
| 20260508153052 | 62 | 108 | 14.0 | 21.0 | 0.00 | 0.00 | 0.00 | 47 | 1007.3 |
| 20260508151553 | 61 | 115 | 11.0 | 23.0 | 0.00 | 0.00 | 0.00 | 49 | 1007.5 |
| 20260508150055 | 60 | 108 | 6.0 | 16.0 | 0.00 | 0.00 | 0.00 | 50 | 1007.6 |
| 20260508144556 | 59 | 107 | 7.0 | 15.0 | 0.00 | 0.00 | 0.00 | 51 | 1007.7 |
| 20260508143054 | 57 | 171 | 10.0 | 19.0 | 0.00 | 0.00 | 0.00 | 52 | 1007.8 |
| 20260508141554 | 57 | 113 | 10.0 | 21.0 | 0.00 | 0.00 | 0.00 | 52 | 1007.9 |
| 20260508140104 | 56 | 108 | 12.0 | 17.0 | 0.00 | 0.00 | 0.00 | 53 | 1008.0 |
| 20260508134549 | 55 | 104 | 7.0 | 15.0 | 0.00 | 0.00 | 0.00 | 54 | 1008.1 |
| 20260508133051 | 55 | 97 | 7.0 | 14.0 | 0.00 | 0.00 | 0.00 | 53 | 1008.0 |
| 20260508131555 | 54 | 92 | 3.0 | 13.0 | 0.00 | 0.00 | 0.00 | 53 | 1007.9 |
| 20260508130052 | 53 | 97 | 1.0 | 6.0 | 0.00 | 0.00 | 0.00 | 57 | 1008.0 |
| 20260508124553 | 52 | 107 | 0.0 | 5.0 | 0.00 | 0.00 | 0.00 | 56 | 1007.9 |
| 20260508123055 | 51 | 140 | 1.0 | 9.0 | 0.00 | 0.00 | 0.00 | 57 | 1007.9 |
| 20260508121557 | 51 | 0 | 3.0 | 9.0 | 0.00 | 0.00 | 0.00 | 58 | 1007.9 |
| 20260508120056 | 50 | 117 | 2.0 | 6.0 | 0.00 | 0.00 | 0.00 | 60 | 1007.9 |
| 20260508114609 | 50 | 98 | 2.0 | 10.0 | 0.00 | 0.00 | 0.00 | 59 | 1007.7 |
| 20260508113103 | 50 | 0 | 3.0 | 11.0 | 0.00 | 0.00 | 0.00 | 58 | 1007.6 |
| 20260508111600 | 50 | 113 | 0.0 | 10.0 | 0.00 | 0.00 | 0.00 | 57 | 1007.5 |
| 20260508110051 | 50 | 0 | 2.0 | 8.0 | 0.00 | 0.00 | 0.00 | 58 | 1007.5 |
| 20260508104553 | 50 | 260 | 2.0 | 8.0 | 0.00 | 0.00 | 0.00 | 57 | 1007.4 |
| 20260508103053 | 50 | 0 | 2.0 | 6.0 | 0.00 | 0.00 | 0.00 | 59 | 1007.4 |
| 20260508101554 | 50 | 142 | 1.0 | 6.0 | 0.00 | 0.00 | 0.00 | 59 | 1007.4 |
| 20260508100053 | 50 | 117 | 0.0 | 5.0 | 0.00 | 0.00 | 0.00 | 59 | 1007.3 |
| 20260508094555 | 50 | 304 | 1.0 | 6.0 | 0.00 | 0.00 | 0.00 | 59 | 1007.3 |
| 20260508093054 | 50 | 0 | 1.0 | 5.0 | 0.00 | 0.00 | 0.00 | 60 | 1007.3 |
| 20260508091608 | 49 | 360 | 2.0 | 10.0 | 0.00 | 0.00 | 0.00 | 60 | 1007.3 |
| 20260508090104 | 49 | 0 | 1.0 | 6.0 | 0.00 | 0.00 | 0.00 | 60 | 1007.3 |
| 20260508084552 | 50 | 0 | 1.0 | 5.0 | 0.00 | 0.00 | 0.00 | 60 | 1007.2 |
| 20260508083107 | 50 | 104 | 1.0 | 5.0 | 0.00 | 0.00 | 0.00 | 59 | 1007.1 |
| 20260508081551 | 50 | 298 | 0.0 | 5.0 | 0.00 | 0.00 | 0.00 | 58 | 1007.2 |
| 20260508080101 | 51 | 0 | 1.0 | 5.0 | 0.00 | 0.00 | 0.00 | 57 | 1007.1 |
| 20260508074555 | 51 | 103 | 0.0 | 5.0 | 0.00 | 0.00 | 0.00 | 57 | 1007.1 |
| 20260508073052 | 51 | 0 | 1.0 | 6.0 | 0.00 | 0.00 | 0.00 | 56 | 1007.0 |
| 20260508071555 | 51 | 119 | 5.0 | 11.0 | 0.00 | 0.00 | 0.00 | 54 | 1007.2 |
| 20260508070054 | 51 | 140 | 4.0 | 10.0 | 0.00 | 0.00 | 0.00 | 54 | 1007.1 |
| 20260508064556 | 51 | 124 | 1.0 | 7.0 | 0.00 | 0.00 | 0.00 | 54 | 1007.3 |
| 20260508063103 | 52 | 100 | 2.0 | 8.0 | 0.00 | 0.00 | 0.00 | 53 | 1007.7 |
| 20260508061554 | 52 | 111 | 3.0 | 9.0 | 0.00 | 0.00 | 0.00 | 52 | 1007.6 |
| 20260508060055 | 52 | 359 | 2.0 | 9.0 | 0.00 | 0.00 | 0.00 | 51 | 1007.8 |
| 20260508054555 | 53 | 130 | 2.0 | 10.0 | 0.00 | 0.00 | 0.00 | 49 | 1007.8 |
| 20260508053101 | 53 | 102 | 2.0 | 9.0 | 0.00 | 0.00 | 0.00 | 49 | 1007.8 |
| 20260508051606 | 52 | 139 | 0.0 | 6.0 | 0.00 | 0.00 | 0.00 | 50 | 1007.8 |
| 20260508050058 | 53 | 0 | 1.0 | 6.0 | 0.00 | 0.00 | 0.00 | 51 | 1007.5 |
| 20260508044551 | 53 | 338 | 0.0 | 5.0 | 0.00 | 0.00 | 0.00 | 49 | 1007.7 |
| 20260508043056 | 53 | 160 | 1.0 | 6.0 | 0.00 | 0.00 | 0.00 | 48 | 1007.8 |
| 20260508041555 | 53 | 268 | 1.0 | 8.0 | 0.00 | 0.00 | 0.00 | 48 | 1007.6 |
| 20260508040054 | 54 | 300 | 2.0 | 10.0 | 0.00 | 0.00 | 0.00 | 46 | 1007.5 |
| 20260508034552 | 54 | 275 | 1.0 | 5.0 | 0.00 | 0.00 | 0.00 | 46 | 1007.6 |
| 20260508033056 | 54 | 0 | 0.0 | 5.0 | 0.00 | 0.00 | 0.00 | 45 | 1007.7 |
| 20260508031556 | 55 | 30 | 1.0 | 6.0 | 0.00 | 0.00 | 0.00 | 44 | 1007.6 |
| 20260508030055 | 55 | 259 | 0.0 | 5.0 | 0.00 | 0.00 | 0.00 | 41 | 1007.7 |
| 20260508024600 | 56 | 308 | 0.0 | 5.0 | 0.00 | 0.00 | 0.00 | 43 | 1007.6 |
| 20260508023056 | 56 | 283 | 0.0 | 4.0 | 0.00 | 0.00 | 0.00 | 44 | 1007.5 |
| 20260508021606 | 56 | 0 | 0.0 | 4.0 | 0.00 | 0.00 | 0.00 | 43 | 1007.4 |
| 20260508020053 | 56 | 295 | 0.0 | 4.0 | 0.00 | 0.00 | 0.00 | 41 | 1007.7 |
| 20260508014552 | 57 | 0 | 1.0 | 6.0 | 0.00 | 0.00 | 0.00 | 42 | 1007.5 |
| 20260508013054 | 57 | 104 | 3.0 | 5.0 | 0.00 | 0.00 | 0.00 | 40 | 1007.5 |
| 20260508011602 | 57 | 110 | 3.0 | 4.0 | 0.00 | 0.00 | 0.00 | 41 | 1007.4 |
| 20260508010058 | 57 | 107 | 5.0 | 7.0 | 0.00 | 0.00 | 0.00 | 41 | 1007.3 |
| 20260508004556 | 58 | 107 | 2.0 | 5.0 | 0.00 | 0.00 | 0.00 | 39 | 1007.3 |
| 20260508003049 | 58 | 121 | 6.0 | 10.0 | 0.00 | 0.00 | 0.00 | 38 | 1007.2 |